FW2367 Chelsea MA US current weather conditions

sailwx.info

Wind from 292 at 1 knots

Air temperature 32.8° C
Dewpoint 18.5° C

Last reported at 2020-Aug-12 17:08 UTC.
Time now 2020-Aug-12 18:05 UTC

Location: N 42°24' W 071°02'.
View on Google Maps.

See reports from other nearby stations

  
Tides and Currents Weather Stations Pressure Air Temp Water Temp Dewpoint Dewpoint Depression Visibility Wind Speed Wind Dir Waves Ship Positions
date/time (UTC)wind fromknots sea level pressurealtimeterstation pressurevisibilityair tempwater tempwave heightnotes
2020-Aug-12 17:08 292 1 32.8
2020-Aug-12 16:58 292 1 33.3
2020-Aug-12 16:48 292 0 32.8
2020-Aug-12 16:38 234 2 32.8
2020-Aug-12 16:28 225 32.8
2020-Aug-12 16:19 284 32.2
2020-Aug-12 16:09 258 1 31.7
2020-Aug-12 16:00 279 3 31.7
2020-Aug-12 15:51 293 31.1
2020-Aug-12 15:41 292 2 30.6
2020-Aug-12 15:31 292 3 31.1
2020-Aug-12 15:21 292 2 31.1
2020-Aug-12 15:11 234 31.1
2020-Aug-12 15:02 292 0 31.1
2020-Aug-12 14:52 090 30.6
2020-Aug-12 14:42 315 0 30.6
2020-Aug-12 14:33 292 30.6
2020-Aug-12 14:23 227 30.6
2020-Aug-12 14:13 292 30.6
2020-Aug-12 14:03 290 0 30.0
2020-Aug-12 13:53 315 29.4
2020-Aug-12 13:44 022 28.9
2020-Aug-12 13:34 292 2 28.9
2020-Aug-12 13:25 292 1 28.3
2020-Aug-12 13:15 270 1 28.9
2020-Aug-12 13:06 233 28.3
2020-Aug-12 12:56 279 0 27.2
2020-Aug-12 12:46 262 0 27.2
2020-Aug-12 12:36 315 0 27.2
2020-Aug-12 12:27 292 0 26.7
2020-Aug-12 12:18 292 1 26.7
2020-Aug-12 12:08 292 2 26.1
2020-Aug-12 11:58 282 2 25.6
2020-Aug-12 11:49 288 2 25.6
2020-Aug-12 11:39 292 0 25.0
2020-Aug-12 11:29 292 2 25.0
2020-Aug-12 11:19 292 2 25.0
2020-Aug-12 11:10 292 3 25.0
2020-Aug-12 11:01 292 3 25.0
2020-Aug-12 10:51 292 2 25.0
2020-Aug-12 10:41 292 3 25.0
2020-Aug-12 10:32 292 2 25.0
2020-Aug-12 10:22 292 3 25.0
2020-Aug-12 10:13 292 1 25.0
2020-Aug-12 10:03 292 3 25.0
2020-Aug-12 09:54 293 2 25.0
2020-Aug-12 09:44 257 2 25.0
2020-Aug-12 09:35 267 1 25.0
2020-Aug-12 09:25 292 2 25.0
2020-Aug-12 09:15 281 2 25.0
2020-Aug-12 09:06 258 2 25.0
2020-Aug-12 08:56 283 4 25.0
2020-Aug-12 08:47 286 3 25.0
2020-Aug-12 08:37 282 4 25.0
2020-Aug-12 08:28 276 4 25.0
2020-Aug-12 08:18 274 2 25.0
2020-Aug-12 08:08 234 1 25.0
2020-Aug-12 07:59 260 2 25.0
2020-Aug-12 07:50 290 2 25.0
2020-Aug-12 07:40 294 5 25.0
2020-Aug-12 07:31 298 4 25.0
2020-Aug-12 07:21 292 4 25.0
2020-Aug-12 07:11 252 3 25.0
2020-Aug-12 07:02 243 2 25.0
2020-Aug-12 06:52 287 3 25.0
2020-Aug-12 06:42 275 4 25.0
2020-Aug-12 06:33 281 3 25.0
2020-Aug-12 06:24 221 4 25.0
2020-Aug-12 06:15 287 3 25.0
2020-Aug-12 06:05 274 3 25.0
2020-Aug-12 05:56 238 4 25.0
2020-Aug-12 05:46 244 2 25.0
2020-Aug-12 05:36 259 3 25.0
2020-Aug-12 05:26 284 4 25.0
2020-Aug-12 05:16 280 4 25.0
2020-Aug-12 05:06 242 5 25.0
2020-Aug-12 04:57 291 2 25.0
2020-Aug-12 04:47 279 2 25.0
2020-Aug-12 04:38 236 4 25.0
2020-Aug-12 04:28 253 5 25.0
2020-Aug-12 04:19 283 3 25.0
2020-Aug-12 04:10 231 3 25.0
2020-Aug-12 04:00 289 4 25.0
2020-Aug-12 03:51 231 3 25.0
2020-Aug-12 03:42 296 5 25.6
2020-Aug-12 03:32 245 5 25.6
2020-Aug-12 03:23 247 3 25.6
2020-Aug-12 03:13 236 2 25.6
2020-Aug-12 03:03 284 3 25.6
2020-Aug-12 02:54 243 3 25.6
2020-Aug-12 02:44 233 4 25.6
2020-Aug-12 02:35 253 1 25.6
2020-Aug-12 02:25 226 1 26.1
2020-Aug-12 02:16 238 5 26.1
2020-Aug-12 02:06 242 3 26.1
2020-Aug-12 01:56 248 2 26.1
2020-Aug-12 01:47 250 3 26.7
2020-Aug-12 01:38 246 3 26.7
2020-Aug-12 01:28 228 3 26.7
2020-Aug-12 01:18 227 3 27.2
2020-Aug-12 01:08 231 6 27.2
2020-Aug-12 00:58 242 5 27.8
2020-Aug-12 00:48 235 5 27.8
2020-Aug-12 00:38 233 5 27.8
2020-Aug-12 00:29 223 4 28.3
2020-Aug-12 00:19 212 3 28.3
2020-Aug-12 00:09 223 2 28.3
2020-Aug-11 23:59 238 3 28.9
2020-Aug-11 23:49 225 6 28.9
2020-Aug-11 23:40 223 5 28.9
2020-Aug-11 23:30 230 4 29.4
2020-Aug-11 23:20 239 2 29.4
2020-Aug-11 23:10 262 3 29.4
2020-Aug-11 23:00 250 4 30.0
2020-Aug-11 22:50 234 5 30.0
2020-Aug-11 22:41 248 3 30.6
2020-Aug-11 22:31 258 2 30.6
2020-Aug-11 22:22 235 4 31.1
2020-Aug-11 22:13 245 4 31.1
2020-Aug-11 22:03 238 7 31.1
2020-Aug-11 21:54 233 4 31.7
2020-Aug-11 21:44 249 3 31.7
2020-Aug-11 21:35 242 2 31.7
2020-Aug-11 21:25 232 3 32.2
2020-Aug-11 21:16 242 6 32.2
2020-Aug-11 21:06 242 3 32.2
2020-Aug-11 20:57 237 4 32.2
2020-Aug-11 20:47 245 6 32.8
2020-Aug-11 20:37 233 5 32.8
2020-Aug-11 20:28 251 6 33.3
2020-Aug-11 20:18 231 4 32.8
2020-Aug-11 20:08 239 5 32.8
2020-Aug-11 19:58 245 5 33.3
2020-Aug-11 19:48 232 4 33.3
2020-Aug-11 19:39 226 3 33.3
2020-Aug-11 19:30 255 3 33.3
2020-Aug-11 19:21 233 6 33.3
2020-Aug-11 19:11 187 2 33.3
2020-Aug-11 19:01 242 5 33.3
2020-Aug-11 18:52 223 1 33.3
2020-Aug-11 18:43 201 2 32.8
2020-Aug-11 18:33 242 3 32.8
2020-Aug-11 18:23 266 2 32.8
2020-Aug-11 18:14 225 0 32.8
2020-Aug-11 18:04 248 1 33.3
2020-Aug-11 17:54 263 3 33.3
2020-Aug-11 17:45 298 3 33.9
2020-Aug-11 17:35 234 1 33.3
2020-Aug-11 17:25 264 2 33.3
2020-Aug-11 17:16 236 2 33.3
2020-Aug-11 17:06 234 2 33.3
2020-Aug-11 16:57 258 2 33.3
2020-Aug-11 16:47 262 1 32.8
2020-Aug-11 16:37 292 2 32.2
2020-Aug-11 16:27 269 2 32.8
2020-Aug-11 16:17 277 3 32.2
2020-Aug-11 16:07 291 2 32.2
2020-Aug-11 15:57 297 4 32.2
2020-Aug-11 15:48 300 2 32.8
2020-Aug-11 15:39 303 0 32.8
2020-Aug-11 15:29 288 1 32.2
2020-Aug-11 15:20 283 0 32.2
2020-Aug-11 15:10 292 2 32.2
2020-Aug-11 15:00 315 0 31.7
2020-Aug-11 14:50 292 1 31.7
2020-Aug-11 14:41 267 2 31.1
2020-Aug-11 14:32 292 2 31.1
2020-Aug-11 14:23 286 2 30.6
2020-Aug-11 14:13 292 3 30.6
2020-Aug-11 14:04 292 2 30.0
2020-Aug-11 13:54 292 2 30.0
2020-Aug-11 13:44 258 0 29.4
2020-Aug-11 13:34 270 1 29.4
2020-Aug-11 13:25 292 1 28.9
2020-Aug-11 13:16 224 2 28.9
2020-Aug-11 13:06 232 1 28.3
2020-Aug-11 12:57 225 1 27.8
2020-Aug-11 12:48 225 1 27.2
2020-Aug-11 12:37 292 2 27.2
2020-Aug-11 12:27 228 2 26.7
2020-Aug-11 12:18 220 2 26.7
2020-Aug-11 12:08 225 1 26.1
2020-Aug-11 11:58 225 2 25.6
2020-Aug-11 11:48 247 1 25.6
2020-Aug-11 11:39 225 1 25.0
2020-Aug-11 11:29 227 1 25.0
2020-Aug-11 11:19 270 2 24.4
2020-Aug-11 11:09 292 1 24.4
2020-Aug-11 10:59 292 2 23.9
2020-Aug-11 10:49 288 0 23.9
2020-Aug-11 10:39 256 2 23.9
2020-Aug-11 10:29 292 2 23.9
2020-Aug-11 10:20 253 0 23.9
2020-Aug-11 10:11 232 2 23.9
2020-Aug-11 10:02 243 1 23.9
2020-Aug-11 09:52 253 0 23.9
2020-Aug-11 09:42 285 1 23.9
2020-Aug-11 09:32 292 1 23.9
2020-Aug-11 09:22 292 1 23.9
2020-Aug-11 09:12 226 0 23.9
2020-Aug-11 09:02 270 2 23.9
2020-Aug-11 08:53 274 2 23.9
2020-Aug-11 08:43 281 2 24.4
2020-Aug-11 08:33 290 3 24.4
2020-Aug-11 08:24 270 0 24.4
2020-Aug-11 08:15 292 0 24.4
2020-Aug-11 08:05 255 0 24.4
2020-Aug-11 07:55 292 2 25.0
2020-Aug-11 07:45 292 1 25.0
2020-Aug-11 07:36 270 0 25.0
2020-Aug-11 07:26 248 1 25.0
2020-Aug-11 07:16 225 1 25.0
2020-Aug-11 07:07 270 0 25.0
2020-Aug-11 06:57 257 1 25.6
2020-Aug-11 06:48 270 0 25.6
2020-Aug-11 06:39 292 25.6
2020-Aug-11 06:29 292 2 25.6
2020-Aug-11 06:20 292 2 25.6
2020-Aug-11 06:10 292 1 26.1
2020-Aug-11 06:01 292 2 26.1
2020-Aug-11 05:51 292 1 26.1
2020-Aug-11 05:41 292 2 26.1
2020-Aug-11 05:31 285 2 26.1
2020-Aug-11 05:22 283 2 26.7
2020-Aug-11 05:12 292 1 26.7
2020-Aug-11 05:02 292 3 26.7
2020-Aug-11 04:52 292 1 27.2
2020-Aug-11 04:43 292 3 27.2
2020-Aug-11 04:33 292 3 27.2
2020-Aug-11 04:24 292 2 27.2
2020-Aug-11 04:15 292 1 27.2
2020-Aug-11 04:06 292 2 27.2
2020-Aug-11 03:57 281 1 27.8
2020-Aug-11 03:47 292 3 27.8
2020-Aug-11 03:37 292 3 27.8
2020-Aug-11 03:28 292 1 27.8
2020-Aug-11 03:18 270 1 27.8
2020-Aug-11 03:08 273 2 27.8
2020-Aug-11 02:59 271 2 28.3
2020-Aug-11 02:50 265 1 28.3
2020-Aug-11 02:40 272 1 28.3
2020-Aug-11 02:30 292 1 28.9
2020-Aug-11 02:21 304 3 28.9
2020-Aug-11 02:11 292 2 28.9
2020-Aug-11 02:02 253 1 28.9
2020-Aug-11 01:52 292 2 29.4
2020-Aug-11 01:43 249 3 29.4
2020-Aug-11 01:33 273 1 29.4
2020-Aug-11 01:23 258 1 29.4
2020-Aug-11 01:14 252 1 29.4
2020-Aug-11 01:04 275 2 29.4
2020-Aug-11 00:54 225 3 29.4
2020-Aug-11 00:45 264 1 29.4
2020-Aug-11 00:36 263 1 29.4
2020-Aug-11 00:26 229 3 30.0
2020-Aug-11 00:16 225 4 30.0
2020-Aug-11 00:07 266 1 30.0
2020-Aug-10 23:58 232 2 30.6
2020-Aug-10 23:49 225 3 30.6
2020-Aug-10 23:39 230 4 31.1
2020-Aug-10 23:29 090 31.1
2020-Aug-10 23:19 090 31.7
2020-Aug-10 23:09 292 31.7
2020-Aug-10 23:00 275 2 32.2
2020-Aug-10 22:51 315 0 32.2
2020-Aug-10 22:42 292 1 32.2
2020-Aug-10 22:33 292 0 32.8
2020-Aug-10 22:23 304 2 32.8
2020-Aug-10 22:14 112 32.8
2020-Aug-10 22:05 285 2 32.8
2020-Aug-10 21:56 292 32.8
2020-Aug-10 21:45 261 3 32.8
2020-Aug-10 21:35 292 3 32.8
2020-Aug-10 21:26 292 0 33.3
2020-Aug-10 21:17 290 5 33.3
2020-Aug-10 21:07 270 33.3
2020-Aug-10 20:58 292 32.8
2020-Aug-10 20:48 296 2 32.8
2020-Aug-10 20:38 292 0 32.8
2020-Aug-10 20:29 249 32.8
2020-Aug-10 20:19 292 1 32.8
2020-Aug-10 20:10 270 1 32.8
2020-Aug-10 20:00 284 3 32.8
2020-Aug-10 19:51 255 2 32.8
2020-Aug-10 19:41 248 1 32.8
2020-Aug-10 19:32 290 3 32.8
2020-Aug-10 19:22 244 2 32.8
2020-Aug-10 19:12 292 1 32.8
2020-Aug-10 19:02 292 1 32.8
2020-Aug-10 18:52 288 1 32.8
2020-Aug-10 18:43 292 1 32.8
2020-Aug-10 18:33 247 4 32.2
2020-Aug-10 18:23 272 3 32.8
2020-Aug-10 18:13 291 4 33.3
2020-Aug-10 18:03 291 32.8